Temperature
14 15 15 16 13 11 12 13 13 14 14 15 16 16 15 15 16 17 17 17 17 17 16 15 15 15 15 15 15 15 15 15 15 15 15 15 15 14 15 15 15 15 14 14 14 14 14 14 14
14 15 15 15 11 12 13 12 13 14 15 16 16 16 15 16 16 16 17 16 16 16 16 15 15 15 15 15 15 15 15 15 15 14 14 15 15 14 14 15 14 14 14 14 14 14 14 14 14
14 14 15 11 11 12 13 13 13 14 15 15 15 15 15 15 16 16 16 16 16 16 15 15 15 15 15 15 15 14 14 14 14 14 14 14 14 14 14 14 14 14 14 14 14 14 14 14 13
14 14 13 11 12 11 13 13 13 13 14 15 15 14 15 15 15 16 16 16 15 15 15 15 15 15 15 15 14 14 14 14 14 14 14 14 14 14 14 14 14 14 14 14 14 14 14 13 13
14 14 10 10 11 11 11 12 13 13 13 14 14 13 14 15 15 16 16 16 15 15 15 15 15 14 14 14 14 14 14 14 14 14 14 14 14 14 14 14 14 14 13 13 13 13 13 13 13
13 10 10 10 11 11 11 13 13 12 13 13 13 13 14 15 15 15 15 15 15 15 15 14 14 14 14 14 14 14 14 14 14 14 14 14 14 14 14 14 14 13 13 13 13 13 13 13 13
12 9 10 10 10 11 12 13 13 12 12 13 14 13 14 15 15 15 15 15 15 15 14 14 14 14 14 14 14 14 14 14 14 13 14 14 14 13 13 13 13 13 13 13 13 13 12 12 13
12 8 9 9 10 11 12 12 13 13 12 14 14 13 13 14 14 14 14 14 14 14 14 14 14 14 13 13 13 13 13 13 13 13 13 13 13 13 13 13 13 13 13 13 13 12 12 12 12
12 8 9 9 10 11 11 11 12 12 13 13 13 14 14 14 14 14 13 13 14 14 14 14 14 13 13 13 13 13 13 13 13 13 13 13 13 13 13 13 13 13 13 13 12 12 12 12 12
10 8 9 10 10 10 11 11 11 12 11 12 12 13 13 13 13 13 13 13 13 13 13 13 13 13 13 13 13 12 13 13 13 13 13 12 12 12 13 12 12 12 12 12 12 12 12 12 12
9 8 9 10 11 11 10 11 11 11 10 11 12 12 12 12 12 13 13 13 13 13 13 13 13 13 13 13 12 12 12 12 12 12 12 12 12 12 12 12 12 12 12 12 12 12 12 12 12
8 8 9 10 11 10 10 10 10 11 11 12 12 12 12 12 12 12 12 13 13 13 13 13 13 13 12 12 12 12 12 12 12 12 12 12 12 12 12 12 12 12 12 12 12 12 12 11 11
8 8 9 9 10 10 10 9 9 10 11 12 12 11 12 12 12 12 12 12 12 12 12 12 12 12 12 12 12 12 12 12 12 12 12 12 11 12 11 11 12 12 12 12 12 12 11 11 11
8 8 8 9 9 9 9 9 9 10 10 11 11 11 11 11 12 12 12 12 12 12 12 12 12 12 12 12 12 12 12 11 11 11 11 11 11 11 11 11 11 11 11 11 11 11 11 11 11
8 7 7 8 8 8 9 8 8 9 10 10 10 10 11 11 11 12 12 12 12 12 11 11 12 11 11 11 11 11 11 11 11 11 11 11 11 11 11 11 11 11 11 11 11 11 11 11 11
7 7 7 7 7 8 8 8 8 9 9 9 9 10 10 10 11 11 11 11 11 11 11 11 11 11 11 11 11 11 11 11 11 11 11 11 11 10 10 10 11 11 11 11 11 11 11 11 11
6 5 6 7 7 7 7 7 7 8 8 8 8 9 9 10 10 11 11 11 11 11 11 11 11 11 11 11 11 11 11 11 11 11 11 10 10 10 10 10 10 10 10 10 10 10 10 10 10
5 5 6 6 6 6 6 6 6 7 7 7 8 8 8 9 10 10 10 10 10 10 10 10 10 10 11 10 10 10 10 10 10 10 10 10 10 10 10 10 10 10 10 10 10 10 10 10 10
5 5 5 6 6 6 5 5 6 6 6 6 6 7 7 8 9 9 10 10 10 10 10 10 10 10 10 10 10 10 10 10 10 10 10 10 10 9 9 9 9 9 10 10 10 10 9 9 9
5 5 5 5 6 6 5 5 5 5 5 6 6 6 7 7 8 8 9 9 10 10 10 10 10 10 10 10 10 10 10 10 9 9 9 9 9 9 9 9 9 9 9 9 9 9 9 9 9
5 5 5 5 5 5 5 5 5 5 5 6 6 7 7 7 7 8 9 9 9 9 9 9 9 10 10 10 9 9 9 9 9 9 9 9 9 9 9 9 9 9 9 9 9 9 9 9 9
5 5 5 5 4 4 4 4 5 5 5 5 5 6 6 7 7 7 8 8 9 9 9 9 9 9 9 9 9 9 9 9 9 9 8 8 8 8 8 8 8 8 8 8 8 8 8 8 8
4 5 4 4 4 3 3 3 4 4 4 5 4 5 6 6 7 7 7 8 8 8 8 8 8 9 8 8 8 8 9 9 9 8 8 8 8 8 8 8 8 8 8 8 8 8 8 8 8
4 4 3 2 3 3 3 3 4 3 4 5 4 5 5 6 6 6 7 7 8 8 8 8 8 8 8 8 8 8 8 8 8 8 8 7 7 7 7 7 7 7 7 7 7 7 7 7 7
4 3 3 2 2 3 3 3 4 4 4 4 4 4 5 5 5 6 6 6 7 7 7 7 7 7 7 7 7 7 7 7 8 8 7 7 7 7 7 7 7 7 7 7 7 7 7 7 7
3 3 3 3 2 2 2 2 3 4 4 4 4 4 4 5 5 5 5 6 6 6 6 7 7 7 7 7 7 7 7 7 7 7 7 7 6 6 6 6 6 6 6 6 6 6 6 6 6
3 3 2 2 1 1 2 2 3 3 3 3 3 3 4 4 4 5 5 5 6 6 6 6 6 6 6 6 6 6 6 6 6 6 6 6 6 6 6 6 6 6 6 6 6 6 6 6 6
3 2 1 1 2 3 3 2 3 3 3 2 2 2 3 4 4 4 5 5 5 5 5 6 6 6 6 6 6 5 5 6 6 6 6 6 6 6 6 6 5 5 5 5 5 5 6 5 5
2 2 1 1 1 2 2 3 3 2 2 2 2 2 3 3 3 4 4 4 4 5 5 5 5 5 5 5 5 5 5 5 5 5 5 5 5 5 5 5 5 5 5 5 5 5 5 5 5
2 1 1 1 1 0 1 3 3 2 2 2 2 2 3 3 3 3 4 4 4 4 4 4 5 5 5 5 5 5 5 4 5 5 5 5 5 5 5 5 5 5 5 4 4 4 4 4 4
Wind_Speed
5 4 3 4 5 3 4 5 3 2 2 2 1 3 6 5 4 3 1 4 5 7 9 12 12 13 13 13 12 12 12 11 11 11 11 11 11 11 11 11 11 11 10 11 11 11 12 12 12
2 2 4 5 4 3 5 5 5 5 3 1 1 1 2 2 1 0 0 3 5 7 9 10 13 13 13 13 12 12 12 11 11 10 10 10 10 10 10 10 10 10 10 10 10 11 11 11 12
1 4 4 4 4 7 6 4 6 4 2 1 1 1 1 1 1 2 2 4 5 7 9 11 13 14 13 13 12 12 11 11 11 10 9 10 9 9 9 9 9 9 9 9 10 10 10 11 11
3 4 4 2 7 6 5 3 2 1 2 1 1 1 2 1 2 2 2 6 6 6 8 11 13 13 13 13 12 12 11 11 10 10 10 9 9 9 9 9 9 9 9 9 9 10 10 10 10
4 4 2 3 7 5 4 4 2 1 0 0 2 0 3 3 2 1 4 6 7 6 6 9 12 12 12 13 12 12 11 11 10 10 10 9 9 9 9 8 9 9 9 9 9 9 9 9 10
3 4 3 7 7 5 4 3 1 1 1 1 2 1 3 2 2 2 4 5 6 6 6 7 11 11 11 12 12 12 11 11 10 10 9 9 8 8 8 8 9 8 8 8 8 8 8 9 9
4 4 5 6 5 4 4 2 3 2 3 4 3 2 3 2 1 2 3 4 4 5 5 5 7 9 10 11 11 11 11 11 10 9 9 9 8 8 8 7 8 8 7 7 7 7 8 9 9
4 4 3 4 5 6 2 0 1 3 4 2 4 4 4 3 0 3 4 3 4 4 4 4 5 7 7 9 10 10 10 10 10 9 9 8 7 7 7 7 7 7 7 6 7 7 7 8 8
3 2 5 6 6 4 1 0 2 2 1 1 1 3 2 2 4 5 3 2 2 3 3 3 4 5 6 7 8 9 9 9 9 8 8 8 7 6 6 6 6 6 7 6 6 7 7 7 7
3 4 8 4 4 3 2 2 2 0 1 2 2 2 1 3 5 5 4 5 5 4 4 4 4 4 6 6 6 6 6 7 7 7 7 7 6 6 6 5 5 5 5 6 6 6 7 6 6
3 5 4 4 3 2 1 2 1 2 4 6 5 3 2 3 4 5 6 6 5 5 4 4 4 4 5 4 5 5 5 5 6 7 7 7 6 5 5 5 4 5 5 5 5 5 5 5 4
2 4 4 3 2 1 2 2 2 5 7 5 4 4 4 5 6 7 7 6 4 4 4 4 4 4 5 5 5 5 5 4 4 6 7 7 4 4 4 4 4 4 4 4 4 4 4 4 4
3 4 4 4 3 3 2 4 4 7 7 2 1 2 4 5 6 5 4 5 4 5 5 5 4 5 5 5 4 5 5 5 5 6 7 7 5 3 3 3 4 4 3 3 3 3 3 3 3
3 3 4 4 3 3 3 6 4 8 3 1 2 4 5 5 6 4 4 4 5 5 5 4 5 5 5 5 5 4 5 6 6 5 6 7 6 5 4 3 3 3 3 3 3 3 2 2 2
1 2 5 4 2 2 1 6 7 6 2 3 4 4 5 5 5 6 6 6 6 5 5 5 5 4 5 6 5 4 5 6 5 5 6 7 7 6 5 3 2 3 3 4 3 3 3 2 2
1 0 3 4 1 1 3 9 7 3 3 5 5 5 5 6 6 6 6 5 5 4 4 4 4 5 5 5 5 4 4 5 5 6 6 6 7 7 5 4 3 4 4 4 2 2 1 1 1
1 2 5 5 2 1 3 8 6 3 3 6 6 6 6 6 6 6 5 5 5 5 5 4 4 5 5 5 4 4 4 4 4 5 5 6 6 7 6 4 3 4 3 2 2 1 1 1 1
4 3 3 5 3 1 4 9 9 5 4 7 7 7 7 7 8 6 5 4 4 4 4 4 4 4 4 4 4 3 3 2 3 4 5 6 6 7 6 4 4 4 3 2 2 2 1 1 2
3 3 4 5 3 2 6 10 11 7 4 6 7 7 7 7 6 4 3 3 3 3 3 4 4 3 4 4 4 4 4 3 3 3 5 6 6 6 6 4 4 3 3 3 3 3 2 1 1
2 3 5 5 3 3 6 10 9 5 5 6 6 7 6 5 4 4 2 1 2 3 3 3 4 4 5 4 4 3 3 3 3 3 3 5 6 6 5 5 4 4 3 3 3 3 2 1 1
4 5 5 5 4 2 4 7 5 4 3 4 5 5 4 5 5 4 3 2 1 2 3 3 4 4 4 4 4 3 3 2 1 2 3 3 5 6 6 6 5 4 4 4 4 4 4 2 1
6 4 4 4 2 3 1 5 6 3 4 5 6 4 5 5 5 4 2 2 2 3 2 3 4 4 4 5 5 6 5 4 3 3 3 3 4 5 5 5 5 4 4 4 4 3 3 4 2
3 2 2 2 2 3 1 3 8 2 4 6 6 5 5 5 4 4 3 2 2 1 1 2 3 3 4 4 6 6 4 3 3 3 3 3 2 3 4 5 4 4 4 4 4 3 3 3 3
1 3 3 2 2 3 4 4 7 3 5 5 4 4 3 3 3 3 2 2 2 2 1 1 3 3 3 4 5 5 5 5 5 4 4 3 2 1 2 3 3 4 3 4 4 4 4 3 3
2 3 2 3 1 5 2 4 7 6 5 5 5 5 3 2 1 2 3 3 2 2 1 1 3 3 3 4 4 4 5 6 6 5 5 4 3 2 3 2 2 2 3 3 3 4 3 3 4
3 5 5 4 4 4 1 5 7 5 4 3 3 2 1 1 1 2 2 2 2 2 1 0 2 3 3 3 3 3 4 4 3 4 4 4 4 3 3 3 3 3 3 3 3 3 3 3 3
3 3 3 3 1 2 5 6 7 4 3 3 3 2 1 1 1 2 2 2 2 2 2 0 1 2 2 3 3 3 3 3 3 3 3 3 3 3 3 3 3 2 3 3 3 3 3 3 3
3 4 4 3 3 4 5 5 5 5 4 4 3 3 3 2 1 2 3 3 2 2 2 1 2 2 2 2 2 2 3 3 3 2 3 3 3 3 3 3 3 3 3 3 3 2 3 3 3
2 2 3 3 3 4 4 6 5 5 3 2 3 3 3 2 2 2 3 2 2 3 2 2 2 2 2 2 2 2 2 2 2 2 3 3 3 3 4 4 3 3 3 3 3 3 3 3 3
4 5 5 4 4 3 3 7 4 3 2 1 2 3 3 2 2 2 2 2 2 2 2 2 1 2 1 1 2 2 2 2 2 2 2 2 3 3 4 4 4 4 4 4 4 4 4 4 4
Wind_Direction
352 31 63 59 61 59 229 237 217 230 229 243 199 151 157 170 170 207 307 142 132 147 160 161 154 149 146 141 136 131 129 125 124 123 122 121 117 117 118 114 110 106 100 95 89 90 91 90 89
5 50 58 69 116 204 249 232 218 222 208 55 36 89 125 226 274 168 164 182 146 149 155 157 154 151 147 143 139 136 132 128 125 124 123 124 122 119 119 117 112 107 103 99 94 93 92 92 91
49 56 91 99 162 199 221 219 221 253 269 1 22 36 150 236 261 213 231 173 144 146 151 157 153 151 148 144 142 139 135 131 127 125 125 124 125 121 118 120 117 111 106 103 100 96 94 95 95
74 52 63 123 218 222 218 227 203 276 6 41 98 356 312 312 254 229 163 144 139 141 147 158 155 153 151 147 145 142 138 134 131 128 126 123 121 119 118 119 120 117 111 107 106 101 98 99 98
65 88 100 230 236 242 238 249 211 130 344 25 110 293 299 325 338 106 135 142 146 143 141 154 155 154 152 149 146 144 141 138 135 133 131 127 123 121 119 120 120 118 116 112 110 108 107 107 102
70 89 152 226 239 250 250 239 192 194 230 185 141 193 269 326 32 105 133 143 144 143 137 148 154 152 151 150 148 146 144 141 138 136 135 133 128 125 122 125 126 124 122 118 116 113 110 107 103
123 132 196 215 238 253 248 214 180 209 235 230 177 172 277 312 300 109 115 126 130 132 130 137 150 152 152 150 147 148 146 144 141 138 135 131 128 125 124 123 131 130 125 124 121 118 114 110 106
132 127 198 217 222 246 251 297 215 193 230 231 160 175 235 261 118 93 97 109 130 136 134 133 142 145 149 151 150 146 145 144 142 139 135 130 127 125 121 122 133 136 131 126 124 122 119 114 111
100 119 219 216 206 232 223 254 305 291 176 312 217 207 238 143 117 108 108 115 149 158 157 143 141 144 146 148 150 147 143 140 137 136 133 125 118 118 117 122 124 131 134 129 127 126 119 109 107
119 196 229 222 211 218 235 212 240 8 294 279 303 312 32 128 147 158 173 183 188 193 192 172 161 152 148 149 144 137 139 139 133 129 125 121 117 116 114 115 117 117 122 126 123 122 112 101 94
165 205 239 260 254 241 260 267 238 176 240 233 235 237 190 166 182 193 196 196 201 201 197 191 177 161 153 148 141 134 129 132 134 130 128 123 116 111 106 101 98 96 96 98 103 99 96 99 98
191 252 254 268 282 272 248 255 255 229 239 247 227 203 196 199 203 208 208 206 202 200 206 198 184 171 164 157 152 147 141 134 140 144 141 132 121 114 110 103 101 98 100 95 96 95 95 96 99
229 266 276 282 298 277 268 259 252 255 265 272 231 204 206 216 217 219 215 206 199 205 211 204 191 181 176 162 160 155 156 155 155 154 153 148 140 138 130 121 114 110 112 109 106 103 98 93 88
234 264 290 291 288 288 253 271 252 261 263 241 214 231 231 230 224 218 219 216 211 212 212 202 194 188 177 176 171 167 165 160 154 159 161 159 155 149 143 136 125 120 125 126 125 126 117 106 96
277 301 312 287 268 260 242 281 248 263 246 250 249 250 261 260 243 228 222 218 216 215 213 207 194 187 179 178 175 172 168 162 158 161 164 163 160 156 152 150 147 140 136 125 113 104 100 111 104
41 25 284 288 272 254 173 261 272 270 227 249 256 259 265 270 256 244 235 224 220 209 207 211 198 189 188 183 175 174 171 165 166 160 161 164 165 162 153 155 162 154 143 130 126 119 110 114 123
15 246 252 285 273 227 200 259 280 280 238 250 256 258 260 272 270 259 236 223 219 210 202 202 195 191 189 180 168 160 162 172 167 160 159 164 167 168 158 161 160 154 139 137 143 127 136 142 124
240 241 252 257 288 284 257 267 281 281 254 259 266 265 262 262 262 259 239 224 216 210 199 195 192 192 179 166 154 148 151 166 160 164 166 164 168 169 161 155 154 149 143 148 138 133 107 127 133
199 209 255 263 291 295 268 277 283 289 284 276 276 271 270 269 273 268 246 230 207 201 192 192 183 188 174 171 169 168 179 181 180 175 172 167 166 169 165 163 158 156 162 166 156 139 127 114 121
231 255 272 292 310 281 284 284 283 270 260 254 259 266 268 284 305 304 291 237 210 206 200 197 191 188 187 185 179 168 158 171 178 166 170 172 165 167 172 170 169 168 161 156 162 148 152 141 122
239 236 258 274 322 322 315 303 282 282 273 279 269 264 271 267 274 286 291 275 253 231 211 203 202 188 184 168 153 131 108 97 122 169 182 183 173 170 171 173 167 168 169 176 180 172 165 171 182
250 246 246 264 302 296 16 297 290 274 294 282 273 273 272 277 273 275 286 293 275 248 220 196 192 183 175 162 160 164 169 175 188 185 179 168 169 168 170 169 167 169 173 178 187 184 173 163 179
230 285 243 239 216 288 254 241 288 309 286 279 275 271 275 277 273 274 278 266 279 275 206 191 171 167 165 165 168 170 169 168 153 146 143 152 147 147 159 165 165 169 175 180 179 176 173 178 180
154 38 41 51 92 266 226 202 283 255 250 279 290 286 283 289 297 297 312 353 358 5 44 154 158 163 162 165 167 171 166 158 151 153 156 162 158 146 139 158 166 170 171 182 182 177 172 182 182
83 86 28 359 337 254 216 211 256 259 256 258 277 287 286 287 316 332 353 7 3 3 5 152 158 167 167 166 171 174 169 166 167 169 170 168 169 183 188 164 170 178 176 174 169 173 176 179 184
201 158 168 206 234 276 272 234 258 273 280 283 291 291 318 354 350 349 347 354 349 352 352 22 172 166 166 170 174 170 164 165 171 175 175 177 183 188 180 172 177 178 166 169 170 177 184 178 187
165 198 171 148 194 270 264 275 297 289 315 338 348 358 346 335 344 349 1 6 3 0 344 282 156 151 161 164 158 158 162 162 169 178 171 172 176 175 169 168 172 174 166 170 168 175 179 174 190
170 150 112 146 191 254 278 267 264 288 300 333 345 332 323 327 345 356 360 357 357 352 0 28 97 142 150 151 158 161 161 159 158 163 168 169 172 166 163 168 172 173 170 174 175 178 180 178 198
151 152 155 166 185 192 264 269 243 241 252 273 296 309 313 317 317 340 344 347 355 11 23 35 65 79 111 140 148 146 152 149 154 176 183 176 170 166 171 182 183 183 183 181 182 194 188 193 207
196 188 164 179 229 208 232 269 278 237 245 245 293 309 320 319 321 329 337 354 13 19 18 25 56 72 76 144 140 153 156 152 165 182 186 181 182 180 184 187 192 195 193 189 192 202 200 204 214
Height
1497 1499 1501 1503 1507 1517 1516 1510 1506 1504 1502 1500 1500 1501 1502 1504 1507 1509 1504 1502 1504 1506 1508 1510 1513 1515 1517 1519 1521 1522 1524 1525 1526 1527 1528 1529 1530 1531 1531 1532 1533 1534 1534 1535 1535 1536 1536 1536 1536
1497 1499 1502 1503 1512 1520 1514 1506 1504 1501 1500 1499 1500 1500 1500 1501 1502 1502 1501 1502 1504 1506 1508 1510 1513 1515 1517 1519 1521 1522 1524 1525 1526 1527 1528 1529 1530 1531 1532 1533 1533 1534 1534 1535 1535 1536 1536 1537 1537
1497 1499 1502 1505 1512 1513 1507 1501 1500 1498 1499 1499 1499 1499 1500 1500 1500 1501 1502 1503 1504 1507 1508 1510 1513 1515 1517 1519 1520 1522 1524 1525 1526 1527 1528 1529 1530 1531 1532 1533 1534 1534 1535 1535 1536 1536 1537 1537 1538
1497 1500 1502 1507 1508 1505 1501 1498 1498 1498 1498 1498 1499 1500 1500 1501 1501 1501 1502 1503 1504 1507 1509 1511 1513 1515 1516 1518 1520 1522 1523 1524 1526 1527 1528 1529 1530 1531 1532 1533 1533 1534 1535 1535 1536 1537 1537 1538 1538
1497 1498 1505 1508 1504 1500 1498 1496 1497 1497 1498 1498 1499 1499 1499 1500 1500 1501 1502 1503 1504 1506 1508 1511 1512 1514 1516 1518 1520 1521 1523 1524 1525 1526 1527 1528 1530 1531 1532 1533 1533 1534 1535 1535 1536 1536 1537 1538 1538
1497 1498 1508 1507 1501 1498 1496 1495 1496 1496 1497 1498 1499 1499 1498 1499 1500 1501 1502 1503 1505 1506 1508 1510 1512 1514 1515 1517 1519 1521 1522 1524 1525 1526 1527 1528 1529 1530 1531 1532 1533 1534 1535 1535 1536 1537 1537 1538 1538
1496 1500 1503 1502 1500 1498 1495 1494 1495 1495 1496 1497 1498 1498 1497 1498 1499 1500 1502 1503 1505 1506 1508 1509 1511 1513 1515 1516 1518 1520 1521 1523 1524 1525 1526 1527 1528 1529 1530 1531 1532 1533 1534 1535 1536 1536 1537 1538 1538
1494 1499 1501 1502 1499 1496 1494 1493 1493 1494 1494 1496 1497 1496 1496 1497 1498 1499 1501 1503 1504 1506 1507 1508 1510 1512 1514 1515 1517 1519 1520 1522 1523 1524 1525 1526 1527 1528 1530 1531 1532 1532 1533 1534 1535 1536 1537 1537 1538
1494 1501 1501 1498 1497 1494 1492 1492 1493 1493 1494 1494 1494 1495 1495 1496 1497 1498 1500 1501 1503 1504 1506 1507 1509 1510 1512 1514 1516 1517 1519 1520 1522 1523 1524 1525 1526 1527 1528 1530 1531 1532 1532 1533 1534 1535 1536 1537 1538
1493 1499 1494 1492 1491 1491 1491 1491 1492 1492 1492 1492 1492 1493 1493 1495 1495 1497 1498 1499 1500 1502 1503 1505 1507 1508 1510 1512 1514 1516 1517 1519 1520 1522 1523 1524 1525 1526 1527 1529 1530 1531 1531 1532 1533 1534 1535 1536 1537
1491 1493 1490 1489 1489 1489 1490 1490 1490 1490 1491 1490 1490 1490 1491 1492 1493 1494 1495 1497 1498 1499 1501 1503 1504 1506 1508 1510 1512 1513 1515 1516 1518 1520 1521 1523 1524 1525 1526 1527 1528 1529 1530 1531 1532 1533 1534 1535 1536
1491 1490 1489 1488 1488 1488 1489 1489 1489 1488 1487 1487 1488 1488 1489 1490 1490 1491 1493 1494 1496 1497 1498 1500 1502 1504 1506 1507 1509 1511 1513 1514 1516 1518 1520 1521 1522 1523 1525 1526 1527 1528 1529 1530 1531 1531 1533 1534 1535
1489 1488 1488 1487 1487 1487 1487 1487 1487 1484 1484 1485 1486 1486 1487 1487 1488 1489 1490 1492 1493 1494 1496 1497 1499 1501 1503 1505 1507 1508 1510 1512 1514 1516 1517 1519 1520 1522 1523 1524 1525 1526 1527 1528 1529 1530 1531 1532 1533
1488 1487 1487 1486 1485 1485 1486 1485 1485 1480 1482 1483 1483 1484 1484 1485 1486 1487 1488 1488 1490 1491 1493 1494 1496 1498 1500 1502 1504 1506 1508 1510 1512 1513 1515 1517 1518 1520 1521 1522 1523 1525 1526 1527 1528 1528 1529 1530 1531
1487 1488 1486 1484 1484 1484 1485 1484 1481 1479 1480 1480 1480 1481 1481 1482 1483 1483 1484 1485 1486 1487 1489 1491 1493 1494 1496 1498 1500 1502 1505 1507 1509 1511 1513 1514 1516 1517 1519 1520 1521 1523 1524 1525 1526 1526 1527 1528 1529
1487 1489 1490 1484 1483 1483 1487 1483 1477 1477 1478 1477 1477 1478 1478 1479 1479 1480 1481 1482 1483 1484 1485 1487 1489 1491 1493 1495 1497 1499 1501 1504 1506 1508 1510 1512 1513 1515 1516 1518 1519 1520 1521 1522 1523 1524 1525 1525 1527
1491 1493 1490 1486 1483 1483 1484 1482 1476 1476 1476 1475 1475 1475 1475 1475 1475 1476 1477 1478 1479 1480 1482 1483 1485 1487 1489 1492 1494 1496 1498 1500 1503 1505 1507 1509 1510 1512 1513 1515 1516 1518 1519 1520 1521 1522 1523 1523 1524
1492 1493 1490 1487 1484 1483 1483 1480 1475 1474 1474 1473 1472 1471 1471 1471 1471 1472 1473 1475 1476 1477 1478 1480 1482 1484 1486 1488 1490 1492 1495 1497 1499 1501 1504 1506 1507 1509 1511 1512 1514 1515 1516 1517 1518 1519 1520 1521 1522
1489 1490 1489 1486 1484 1484 1482 1479 1474 1472 1472 1471 1469 1468 1468 1467 1468 1469 1470 1471 1472 1473 1474 1476 1477 1480 1482 1484 1486 1488 1491 1493 1496 1498 1500 1502 1504 1506 1507 1509 1510 1512 1513 1514 1515 1516 1517 1518 1519
1487 1488 1488 1486 1483 1483 1481 1477 1472 1470 1469 1468 1466 1465 1465 1465 1465 1465 1466 1467 1468 1469 1471 1472 1474 1476 1478 1480 1482 1485 1487 1490 1492 1494 1496 1498 1500 1502 1504 1506 1507 1508 1510 1511 1512 1514 1515 1515 1517
1485 1487 1487 1486 1484 1483 1482 1475 1470 1467 1465 1465 1463 1463 1462 1463 1463 1462 1463 1464 1465 1466 1467 1468 1470 1472 1474 1476 1479 1481 1484 1486 1489 1491 1493 1494 1497 1499 1501 1502 1503 1505 1507 1508 1509 1511 1512 1513 1514
1483 1483 1484 1484 1487 1488 1486 1484 1470 1466 1464 1462 1461 1460 1460 1460 1460 1460 1460 1461 1462 1463 1464 1466 1467 1469 1471 1473 1475 1477 1479 1481 1484 1487 1489 1491 1493 1495 1497 1499 1500 1502 1503 1505 1507 1508 1509 1510 1511
1483 1482 1483 1484 1487 1490 1488 1489 1473 1467 1464 1461 1459 1458 1458 1458 1458 1458 1458 1459 1460 1461 1462 1463 1465 1466 1468 1470 1472 1474 1476 1478 1481 1483 1485 1487 1489 1491 1493 1495 1496 1498 1499 1501 1503 1505 1506 1507 1508
1482 1484 1485 1488 1490 1490 1486 1488 1475 1470 1462 1458 1456 1456 1455 1455 1455 1455 1456 1457 1458 1459 1460 1461 1462 1464 1466 1468 1469 1471 1473 1475 1477 1479 1482 1484 1486 1487 1489 1491 1493 1495 1496 1498 1500 1502 1503 1504 1505
1483 1488 1495 1495 1498 1490 1484 1484 1473 1462 1458 1457 1455 1454 1453 1453 1453 1454 1454 1455 1456 1457 1458 1459 1461 1462 1464 1465 1467 1468 1470 1472 1474 1476 1478 1480 1482 1484 1486 1488 1489 1491 1493 1495 1497 1498 1500 1501 1502
1483 1485 1494 1496 1498 1491 1486 1482 1468 1459 1457 1455 1454 1453 1452 1452 1453 1453 1454 1454 1455 1456 1457 1458 1459 1460 1462 1463 1465 1466 1468 1469 1471 1473 1475 1477 1479 1481 1483 1485 1486 1488 1490 1491 1493 1495 1496 1498 1499
1482 1484 1486 1494 1497 1495 1486 1479 1466 1456 1455 1453 1452 1451 1451 1451 1452 1452 1453 1453 1454 1455 1455 1456 1457 1458 1460 1461 1463 1464 1465 1467 1469 1470 1473 1475 1476 1478 1480 1482 1483 1485 1486 1488 1490 1491 1493 1494 1495
1480 1483 1490 1493 1492 1488 1481 1478 1468 1459 1455 1454 1453 1451 1451 1451 1451 1451 1452 1452 1453 1454 1454 1455 1455 1457 1458 1459 1461 1462 1464 1465 1467 1468 1470 1472 1473 1475 1476 1478 1480 1482 1483 1485 1486 1487 1489 1491 1492
1482 1484 1485 1489 1489 1488 1486 1473 1459 1456 1454 1454 1453 1452 1451 1451 1450 1450 1451 1451 1452 1452 1453 1453 1454 1455 1456 1458 1459 1461 1462 1463 1465 1466 1467 1469 1471 1472 1473 1475 1477 1478 1479 1481 1482 1484 1485 1486 1488
1477 1478 1482 1486 1488 1489 1485 1472 1454 1454 1453 1452 1452 1451 1451 1451 1450 1450 1450 1450 1451 1451 1451 1452 1453 1454 1455 1456 1457 1459 1460 1462 1463 1464 1464 1466 1467 1469 1470 1472 1473 1474 1475 1477 1478 1480 1481 1482 1483